Corpus Christi, TX

4:49 PM CST on January 18, 2017 (GMT -0600)
North Padre Island

Weather History for KOPM - November, 2012

Change the Weather History Date:

Saturday, November 10, 2012

  Actual Average (KHRL) Record (KHRL)
Temperature  
Mean Temperature 79 °F -  
Max Temperature 80 °F 77 °F 91 °F (2006)
Min Temperature 78 °F 57 °F 38 °F (1922)
Cooling Degree Days 14    
Growing Degree Days 29 (Base 50)    
Moisture  
Dew Point 67 °F    
Average Humidity 66    
Maximum Humidity 74    
Minimum Humidity 61    
Precipitation  
Precipitation 0.00 in - - ()
Sea Level Pressure  
Sea Level Pressure 29.97 in    
Wind  
Wind Speed 24 mph (SE)    
Max Wind Speed 28 mph    
Max Gust Speed 29 mph    
Visibility 10 miles    
Events      
Averages and records for this station are not official NWS values.
T = Trace of Precipitation, MM = Missing Value Source: NWS Daily Summary

Daily Weather History Graph

Daily Weather History Graph

Search for Another Location

Airport or City:

Trip Planner

Search our weather history database for the weather conditions in past years. The results will help you decide how hot, cold, wet, or windy it might be!

Date:

Astronomy

Nov. 10, 2012 Rise Set
Actual Time 6:44 AM CST 5:39 PM CST
Civil Twilight 6:19 AM CST 6:03 PM CST
Nautical Twilight 5:51 AM CST 6:31 PM CST
Astronomical Twilight 5:24 AM CST 6:58 PM CST
Moon 3:08 AM CST (11/10) 3:11 PM CST (11/10)
Length of Visible Light 11h 43m
Length of Day
10h 55m
Waning Crescent, 14% of the Moon is Illuminated
Nov 10
Waning Crescent
Nov 13
New
Nov 20
First Quarter
Nov 28
Full
Dec 6
Last Quarter

Hourly Weather History & Observations

Time (CST) Temp. Heat Index Dew Point Humidity Pressure Visibility Wind Dir Wind Speed Gust Speed Precip Events Conditions
8:35 AM 78.8 °F - 66.2 °F 65% 30.03 in 9.0 mi SSE 23.0 mph - N/A   Scattered Clouds
8:55 AM 78.8 °F - 66.2 °F 65% 30.04 in 10.0 mi SE 24.2 mph - N/A   Partly Cloudy
9:15 AM 78.8 °F - 66.2 °F 65% 30.04 in 9.0 mi SSE 20.7 mph 28.8 mph N/A   Scattered Clouds
9:35 AM 78.8 °F - 66.2 °F 65% 30.04 in 9.0 mi SE 21.9 mph - N/A   Partly Cloudy
9:55 AM 78.8 °F - 66.2 °F 65% 30.04 in 10.0 mi SE 20.7 mph - N/A   Clear
10:00 AM 78.8 °F - 66.2 °F 65% 30.04 in 10.0 mi SE 21.9 mph - N/A   Partly Cloudy
11:25 AM 78.8 °F - 66.2 °F 65% 30.02 in - SE 24.2 mph - N/A   Unknown
11:55 AM 78.8 °F - 66.2 °F 65% 30.00 in 9.0 mi SE 23.0 mph - N/A   Scattered Clouds
12:15 PM 78.8 °F - 66.2 °F 65% 29.99 in 9.0 mi SE 24.2 mph - N/A   Scattered Clouds
12:35 PM 78.8 °F - 66.2 °F 65% 29.98 in 9.0 mi SE 25.3 mph - N/A   Partly Cloudy
12:55 PM 78.8 °F - 66.2 °F 65% 29.97 in 9.0 mi SE 25.3 mph - N/A   Partly Cloudy
1:15 PM 78.8 °F - 66.2 °F 65% 29.97 in 9.0 mi SE 26.5 mph - N/A   Clear
1:35 PM 80.6 °F 82.7 °F 66.2 °F 61% 29.96 in 9.0 mi SE 26.5 mph - N/A   Clear
1:55 PM 78.8 °F - 66.2 °F 65% 29.95 in 10.0 mi SE 25.3 mph - N/A   Clear
2:15 PM 78.8 °F - 66.2 °F 65% 29.95 in 9.0 mi SE 25.3 mph - N/A   Clear
2:35 PM 78.8 °F - 66.2 °F 65% 29.94 in 9.0 mi SE 26.5 mph - N/A   Clear
2:55 PM 78.8 °F - 66.2 °F 65% 29.94 in 9.0 mi SE 24.2 mph - N/A   Clear
3:15 PM 78.8 °F - 66.2 °F 65% 29.93 in 10.0 mi SE 24.2 mph - N/A   Scattered Clouds
3:35 PM 78.8 °F - 66.2 °F 65% 29.93 in - SE 24.2 mph - N/A   Scattered Clouds
3:55 PM 80.6 °F 82.7 °F 66.2 °F 61% 29.93 in 9.0 mi SE 23.0 mph - N/A   Clear
4:15 PM 78.8 °F - 66.2 °F 65% 29.93 in 10.0 mi SE 24.2 mph - N/A   Partly Cloudy
4:35 PM 78.8 °F - 66.2 °F 65% 29.93 in 9.0 mi SE 23.0 mph - N/A   Clear
4:55 PM 78.8 °F - 66.2 °F 65% 29.93 in 10.0 mi SE 24.2 mph - N/A   Clear
5:15 PM 78.8 °F - 66.2 °F 65% 29.94 in 9.0 mi SE 25.3 mph - N/A   Clear
5:35 PM 78.8 °F - 66.2 °F 65% 29.94 in 9.0 mi SE 24.2 mph - N/A   Clear
5:55 PM 78.8 °F - 66.2 °F 65% 29.94 in 10.0 mi SE 25.3 mph - N/A   Clear
6:15 PM 78.8 °F - 66.2 °F 65% 29.95 in 10.0 mi SE 25.3 mph - N/A   Unknown
6:35 PM 78.8 °F - 66.2 °F 65% 29.94 in 10.0 mi SE 25.3 mph - N/A   Clear
6:55 PM 78.8 °F - 68.0 °F 69% 29.95 in 10.0 mi SE 24.2 mph - N/A   Clear
7:15 PM 78.8 °F - 68.0 °F 69% 29.95 in 10.0 mi SE 24.2 mph - N/A   Scattered Clouds
7:35 PM 78.8 °F - 66.2 °F 65% 29.96 in 10.0 mi SE 26.5 mph - N/A   Partly Cloudy
7:55 PM 78.8 °F - 64.4 °F 61% 29.96 in 10.0 mi SE 26.5 mph - N/A   Clear
8:15 PM 78.8 °F - 66.2 °F 65% 29.96 in 10.0 mi SE 24.2 mph - N/A   Clear
8:35 PM 78.8 °F - 66.2 °F 65% 29.97 in 10.0 mi SE 26.5 mph - N/A   Clear
8:55 PM 78.8 °F - 68.0 °F 69% 29.97 in 10.0 mi SE 24.2 mph - N/A   Clear
9:15 PM 78.8 °F - 66.2 °F 65% 29.96 in 10.0 mi SE 21.9 mph - N/A   Clear
9:35 PM 78.8 °F - 68.0 °F 69% 29.96 in 10.0 mi SE 23.0 mph 28.8 mph N/A   Clear
9:55 PM 78.8 °F - 68.0 °F 69% 29.96 in 10.0 mi SE 26.5 mph - N/A   Partly Cloudy
10:15 PM 78.8 °F - 68.0 °F 69% 29.96 in 10.0 mi SE 27.6 mph - N/A   Scattered Clouds
10:35 PM 78.8 °F - 68.0 °F 69% 29.95 in 10.0 mi SE 25.3 mph - N/A   Partly Cloudy
10:55 PM 78.8 °F - 68.0 °F 69% 29.95 in 10.0 mi SE 25.3 mph - N/A   Partly Cloudy
11:15 PM 78.8 °F - 68.0 °F 69% 29.95 in 10.0 mi SE 25.3 mph - N/A   Partly Cloudy
11:35 PM 78.8 °F - 68.0 °F 69% 29.94 in 10.0 mi SSE 21.9 mph - N/A   Partly Cloudy
11:55 PM 78.8 °F - 69.8 °F 74% 29.94 in 9.0 mi SSE 21.9 mph 28.8 mph N/A   Partly Cloudy